Powrót do katalogu

STARLINK-30948

AktywnyŁącznośćVLEO
NORAD 58525·PAYLOAD·🇺🇸 United States

Wystrzelony Dec 7, 2023 z Cape Canaveral Space Force Station

Loading…

Następne Przeloty (najbliższe 24 godziny)

TLE

ŚwieżeSource: CelesTrak SupGP

Epoka: Sep 15, 2026, 02:43 UTC

1 58525C 23191T   26258.11368056  .00048399  00000+0  17526-2 0  2587
2 58525  43.0020 113.4972 0001387 275.8290  71.1275 15.27561648    14

Śledź STARLINK-30948 w czasie rzeczywistym z AllMySat

Download on the App Store